contact:dominique.lefevre@mio.osupytheas.fr, maurice.libes@osupytheas.fr, didier.mallarino@osupytheas.fr
Project:EMSO http://www.emso-fr.org/EMSO-France
Depth: 2436.0 m
Title:EMSO Ligure Ouest : Data MII capteur MICROCAT
DateTime_Computer,Latitude,Longitude,Temperature,Conductivity,Pressure,DateTime_Instrument
DateTime_Computer,Latitude,Longitude,degC,S m-1,dbar,DateTime_Instrument
2023-12-13T00:01:38Z,42.805,6.029,13.3056,4.60161,2470.717,2023-12-13T02:04:07Z
2023-12-13T00:04:41Z,42.805,6.029,13.3059,4.60167,2470.707,2023-12-13T02:07:10Z
2023-12-13T00:07:44Z,42.805,6.029,13.3055,4.60166,2470.693,2023-12-13T02:10:13Z
2023-12-13T00:10:47Z,42.805,6.029,13.3063,4.60155,2470.684,2023-12-13T02:13:17Z
2023-12-13T00:13:50Z,42.805,6.029,13.3057,4.60154,2470.684,2023-12-13T02:16:20Z
2023-12-13T00:16:53Z,42.805,6.029,13.3049,4.60150,2470.693,2023-12-13T02:19:23Z
2023-12-13T00:19:56Z,42.805,6.029,13.3045,4.60157,2470.67,2023-12-13T02:22:26Z
2023-12-13T00:22:59Z,42.805,6.029,13.3049,4.60164,2470.693,2023-12-13T02:25:29Z
2023-12-13T00:26:02Z,42.805,6.029,13.3057,4.60155,2470.67,2023-12-13T02:28:32Z
2023-12-13T00:29:05Z,42.805,6.029,13.3043,4.60147,2470.693,2023-12-13T02:31:35Z
2023-12-13T00:32:09Z,42.805,6.029,13.3048,4.60140,2470.707,2023-12-13T02:34:38Z
2023-12-13T00:35:12Z,42.805,6.029,13.3049,4.60138,2470.717,2023-12-13T02:37:41Z
2023-12-13T00:38:15Z,42.805,6.029,13.3043,4.60137,2470.693,2023-12-13T02:40:44Z
2023-12-13T00:41:18Z,42.805,6.029,13.3050,4.60150,2470.693,2023-12-13T02:43:47Z
2023-12-13T00:44:21Z,42.805,6.029,13.3045,4.60144,2470.67,2023-12-13T02:46:50Z
2023-12-13T00:47:24Z,42.805,6.029,13.3052,4.60160,2470.693,2023-12-13T02:49:54Z
2023-12-13T00:50:27Z,42.805,6.029,13.3048,4.60148,2470.67,2023-12-13T02:52:57Z
2023-12-13T00:53:30Z,42.805,6.029,13.3037,4.60137,2470.67,2023-12-13T02:56:00Z
2023-12-13T00:56:33Z,42.805,6.029,13.3046,4.60133,2470.646,2023-12-13T02:59:03Z
2023-12-13T00:59:36Z,42.805,6.029,13.3041,4.60144,2470.684,2023-12-13T03:02:06Z
2023-12-13T01:02:39Z,42.805,6.029,13.3049,4.60143,2470.693,2023-12-13T03:05:09Z
2023-12-13T01:05:42Z,42.805,6.029,13.3048,4.60144,2470.67,2023-12-13T03:08:12Z
2023-12-13T01:08:45Z,42.805,6.029,13.3041,4.60144,2470.67,2023-12-13T03:11:15Z
2023-12-13T01:11:49Z,42.805,6.029,13.3047,4.60133,2470.693,2023-12-13T03:14:18Z
2023-12-13T01:14:52Z,42.805,6.029,13.3048,4.60137,2470.67,2023-12-13T03:17:21Z
2023-12-13T01:17:55Z,42.805,6.029,13.3052,4.60150,2470.67,2023-12-13T03:20:24Z
2023-12-13T01:20:58Z,42.805,6.029,13.3046,4.60143,2470.67,2023-12-13T03:23:27Z
2023-12-13T01:24:01Z,42.805,6.029,13.3040,4.60140,2470.684,2023-12-13T03:26:31Z
2023-12-13T01:27:04Z,42.805,6.029,13.3048,4.60144,2470.693,2023-12-13T03:29:34Z
2023-12-13T01:30:07Z,42.805,6.029,13.3052,4.60147,2470.693,2023-12-13T03:32:37Z
2023-12-13T01:33:10Z,42.805,6.029,13.3050,4.60155,2470.717,2023-12-13T03:35:40Z
2023-12-13T01:36:13Z,42.805,6.029,13.3051,4.60148,2470.67,2023-12-13T03:38:43Z
2023-12-13T01:39:16Z,42.805,6.029,13.3054,4.60152,2470.67,2023-12-13T03:41:46Z
2023-12-13T01:42:19Z,42.805,6.029,13.3048,4.60146,2470.67,2023-12-13T03:44:49Z
2023-12-13T01:45:23Z,42.805,6.029,13.3048,4.60151,2470.684,2023-12-13T03:47:52Z
2023-12-13T01:48:26Z,42.805,6.029,13.3048,4.60138,2470.67,2023-12-13T03:50:55Z
2023-12-13T01:51:29Z,42.805,6.029,13.3058,4.60150,2470.67,2023-12-13T03:53:58Z
2023-12-13T01:54:32Z,42.805,6.029,13.3046,4.60137,2470.67,2023-12-13T03:57:01Z
2023-12-13T01:57:35Z,42.805,6.029,13.3046,4.60137,2470.707,2023-12-13T04:00:04Z
2023-12-13T02:00:38Z,42.805,6.029,13.3048,4.60139,2470.707,2023-12-13T04:03:08Z
2023-12-13T02:03:41Z,42.805,6.029,13.3050,4.60150,2470.67,2023-12-13T04:06:11Z
2023-12-13T02:06:44Z,42.805,6.029,13.3058,4.60160,2470.707,2023-12-13T04:09:14Z
2023-12-13T02:09:47Z,42.805,6.029,13.3044,4.60143,2470.67,2023-12-13T04:12:17Z
2023-12-13T02:12:50Z,42.805,6.029,13.3050,4.60140,2470.67,2023-12-13T04:15:20Z
2023-12-13T02:15:53Z,42.805,6.029,13.3046,4.60140,2470.656,2023-12-13T04:18:23Z
2023-12-13T02:18:56Z,42.805,6.029,13.3053,4.60160,2470.693,2023-12-13T04:21:26Z
2023-12-13T02:22:00Z,42.805,6.029,13.3058,4.60167,2470.707,2023-12-13T04:24:29Z
2023-12-13T02:25:03Z,42.805,6.029,13.3050,4.60152,2470.67,2023-12-13T04:27:32Z
2023-12-13T02:28:06Z,42.805,6.029,13.3060,4.60158,2470.693,2023-12-13T04:30:35Z
2023-12-13T02:31:09Z,42.805,6.029,13.3058,4.60144,2470.67,2023-12-13T04:33:38Z
2023-12-13T02:34:12Z,42.805,6.029,13.3057,4.60160,2470.67,2023-12-13T04:36:41Z
2023-12-13T02:37:15Z,42.805,6.029,13.3047,4.60143,2470.684,2023-12-13T04:39:45Z
2023-12-13T02:40:18Z,42.805,6.029,13.3053,4.60137,2470.67,2023-12-13T04:42:48Z
2023-12-13T02:43:21Z,42.805,6.029,13.3044,4.60143,2470.707,2023-12-13T04:45:51Z
2023-12-13T02:46:24Z,42.805,6.029,13.3046,4.60155,2470.73,2023-12-13T04:48:54Z
2023-12-13T02:49:27Z,42.805,6.029,13.3052,4.60158,2470.693,2023-12-13T04:51:57Z
2023-12-13T02:52:30Z,42.805,6.029,13.3063,4.60151,2470.717,2023-12-13T04:55:00Z
2023-12-13T02:55:33Z,42.805,6.029,13.3046,4.60157,2470.717,2023-12-13T04:58:03Z
2023-12-13T02:58:37Z,42.805,6.029,13.3046,4.60145,2470.74,2023-12-13T05:01:06Z
2023-12-13T03:01:40Z,42.805,6.029,13.3053,4.60157,2470.693,2023-12-13T05:04:09Z
2023-12-13T03:04:43Z,42.805,6.029,13.3056,4.60174,2470.707,2023-12-13T05:07:12Z
2023-12-13T03:07:46Z,42.805,6.029,13.3069,4.60167,2470.717,2023-12-13T05:10:15Z
2023-12-13T03:10:49Z,42.805,6.029,13.3061,4.60180,2470.693,2023-12-13T05:13:18Z
2023-12-13T03:13:52Z,42.805,6.029,13.3067,4.60155,2470.73,2023-12-13T05:16:22Z
2023-12-13T03:16:55Z,42.805,6.029,13.3051,4.60168,2470.717,2023-12-13T05:19:25Z
2023-12-13T03:19:58Z,42.805,6.029,13.3046,4.60186,2470.73,2023-12-13T05:22:28Z
2023-12-13T03:23:01Z,42.805,6.029,13.3064,4.60171,2470.717,2023-12-13T05:25:31Z
2023-12-13T03:26:04Z,42.805,6.029,13.3070,4.60160,2470.703,2023-12-13T05:28:34Z
2023-12-13T03:29:07Z,42.805,6.029,13.3063,4.60164,2470.717,2023-12-13T05:31:37Z
2023-12-13T03:32:10Z,42.805,6.029,13.3063,4.60154,2470.717,2023-12-13T05:34:40Z
2023-12-13T03:35:14Z,42.805,6.029,13.3078,4.60178,2470.717,2023-12-13T05:37:43Z
2023-12-13T03:38:17Z,42.805,6.029,13.3070,4.60160,2470.73,2023-12-13T05:40:46Z
2023-12-13T03:41:20Z,42.805,6.029,13.3063,4.60207,2470.717,2023-12-13T05:43:49Z
2023-12-13T03:44:23Z,42.805,6.029,13.3048,4.60160,2470.717,2023-12-13T05:46:52Z
2023-12-13T03:47:26Z,42.805,6.029,13.3051,4.60164,2470.763,2023-12-13T05:49:55Z
2023-12-13T03:50:29Z,42.805,6.029,13.3056,4.60194,2470.74,2023-12-13T05:52:59Z
2023-12-13T03:53:32Z,42.805,6.029,13.3060,4.60183,2470.763,2023-12-13T05:56:02Z
2023-12-13T03:56:35Z,42.805,6.029,13.3076,4.60190,2470.754,2023-12-13T05:59:05Z
2023-12-13T03:59:38Z,42.805,6.029,13.3072,4.60193,2470.74,2023-12-13T06:02:08Z
2023-12-13T04:02:41Z,42.805,6.029,13.3069,4.60189,2470.763,2023-12-13T06:05:11Z
2023-12-13T04:05:44Z,42.805,6.029,13.3061,4.60173,2470.74,2023-12-13T06:08:14Z
2023-12-13T04:08:47Z,42.805,6.029,13.3062,4.60162,2470.8,2023-12-13T06:11:17Z
2023-12-13T04:11:51Z,42.805,6.029,13.3049,4.60165,2470.777,2023-12-13T06:14:20Z
2023-12-13T04:14:54Z,42.805,6.029,13.3078,4.60166,2470.777,2023-12-13T06:17:23Z
2023-12-13T04:17:57Z,42.805,6.029,13.3071,4.60170,2470.8,2023-12-13T06:20:26Z
2023-12-13T04:21:00Z,42.805,6.029,13.3082,4.60185,2470.8,2023-12-13T06:23:29Z
2023-12-13T04:24:03Z,42.805,6.029,13.3064,4.60181,2470.777,2023-12-13T06:26:32Z
2023-12-13T04:27:06Z,42.805,6.029,13.3061,4.60183,2470.777,2023-12-13T06:29:36Z
2023-12-13T04:30:09Z,42.805,6.029,13.3073,4.60178,2470.8,2023-12-13T06:32:39Z
2023-12-13T04:33:12Z,42.805,6.029,13.3067,4.60190,2470.777,2023-12-13T06:35:42Z
2023-12-13T04:36:15Z,42.805,6.029,13.3076,4.60178,2470.824,2023-12-13T06:38:45Z
2023-12-13T04:39:18Z,42.805,6.029,13.3070,4.60174,2470.787,2023-12-13T06:41:48Z
2023-12-13T04:42:21Z,42.805,6.029,13.3063,4.60195,2470.824,2023-12-13T06:44:51Z
2023-12-13T04:45:24Z,42.805,6.029,13.3074,4.60189,2470.833,2023-12-13T06:47:54Z
2023-12-13T04:48:28Z,42.805,6.029,13.3059,4.60167,2470.833,2023-12-13T06:50:57Z
2023-12-13T04:51:31Z,42.805,6.029,13.3076,4.60177,2470.833,2023-12-13T06:54:00Z
2023-12-13T04:54:34Z,42.805,6.029,13.3079,4.60178,2470.787,2023-12-13T06:57:03Z
2023-12-13T04:57:37Z,42.805,6.029,13.3078,4.60150,2470.81,2023-12-13T07:00:06Z
2023-12-13T05:00:40Z,42.805,6.029,13.3055,4.60185,2470.857,2023-12-13T07:03:09Z
2023-12-13T05:03:43Z,42.805,6.029,13.3069,4.60180,2470.871,2023-12-13T07:06:13Z
2023-12-13T05:06:46Z,42.805,6.029,13.3054,4.60176,2470.847,2023-12-13T07:09:16Z
2023-12-13T05:09:49Z,42.805,6.029,13.3046,4.60151,2470.833,2023-12-13T07:12:19Z
2023-12-13T05:12:52Z,42.805,6.029,13.3051,4.60167,2470.81,2023-12-13T07:15:22Z
2023-12-13T05:15:55Z,42.805,6.029,13.3053,4.60158,2470.857,2023-12-13T07:18:25Z
2023-12-13T05:18:58Z,42.805,6.029,13.3048,4.60144,2470.857,2023-12-13T07:21:28Z
2023-12-13T05:22:01Z,42.805,6.029,13.3043,4.60152,2470.871,2023-12-13T07:24:31Z
2023-12-13T05:25:05Z,42.805,6.029,13.3056,4.60177,2470.894,2023-12-13T07:27:34Z
2023-12-13T05:28:08Z,42.805,6.029,13.3054,4.60145,2470.857,2023-12-13T07:30:37Z
2023-12-13T05:31:10Z,42.805,6.029,13.3069,4.60183,2470.871,2023-12-13T07:33:39Z
2023-12-13T05:34:13Z,42.805,6.029,13.3055,4.60179,2470.857,2023-12-13T07:36:42Z
2023-12-13T05:37:16Z,42.805,6.029,13.3063,4.60180,2470.857,2023-12-13T07:39:45Z
2023-12-13T05:40:19Z,42.805,6.029,13.3054,4.60158,2470.857,2023-12-13T07:42:48Z
2023-12-13T05:43:22Z,42.805,6.029,13.3054,4.60179,2470.917,2023-12-13T07:45:52Z
2023-12-13T05:46:25Z,42.805,6.029,13.3058,4.60209,2470.904,2023-12-13T07:48:55Z
2023-12-13T05:49:28Z,42.805,6.029,13.3045,4.60166,2470.88,2023-12-13T07:51:58Z
2023-12-13T05:52:31Z,42.805,6.029,13.3054,4.60160,2470.894,2023-12-13T07:55:01Z
2023-12-13T05:55:34Z,42.805,6.029,13.3056,4.60151,2470.88,2023-12-13T07:58:04Z
2023-12-13T05:58:37Z,42.805,6.029,13.3080,4.60194,2470.857,2023-12-13T08:01:07Z
2023-12-13T06:01:40Z,42.805,6.029,13.3061,4.60145,2470.904,2023-12-13T08:04:10Z
2023-12-13T06:04:44Z,42.805,6.029,13.3061,4.60198,2470.88,2023-12-13T08:07:13Z
2023-12-13T06:07:47Z,42.805,6.029,13.3048,4.60153,2470.894,2023-12-13T08:10:16Z
2023-12-13T06:10:50Z,42.805,6.029,13.3065,4.60190,2470.927,2023-12-13T08:13:19Z
2023-12-13T06:13:53Z,42.805,6.029,13.3058,4.60147,2470.904,2023-12-13T08:16:22Z
2023-12-13T06:16:56Z,42.805,6.029,13.3044,4.60175,2470.904,2023-12-13T08:19:25Z
2023-12-13T06:19:59Z,42.805,6.029,13.3048,4.60164,2470.904,2023-12-13T08:22:29Z
2023-12-13T06:23:02Z,42.805,6.029,13.3051,4.60169,2470.927,2023-12-13T08:25:32Z
2023-12-13T06:26:05Z,42.805,6.029,13.3047,4.60166,2470.917,2023-12-13T08:28:35Z
2023-12-13T06:29:08Z,42.805,6.029,13.3056,4.60175,2470.904,2023-12-13T08:31:38Z
2023-12-13T06:32:11Z,42.805,6.029,13.3054,4.60171,2470.927,2023-12-13T08:34:41Z
2023-12-13T06:35:14Z,42.805,6.029,13.3062,4.60173,2470.904,2023-12-13T08:37:44Z
2023-12-13T06:38:18Z,42.805,6.029,13.3046,4.60161,2470.94,2023-12-13T08:40:47Z
2023-12-13T06:41:21Z,42.805,6.029,13.3051,4.60208,2470.927,2023-12-13T08:43:50Z
2023-12-13T06:44:24Z,42.805,6.029,13.3068,4.60189,2470.927,2023-12-13T08:46:53Z
2023-12-13T06:47:27Z,42.805,6.029,13.3051,4.60161,2470.894,2023-12-13T08:49:56Z
2023-12-13T06:50:30Z,42.805,6.029,13.3058,4.60175,2470.927,2023-12-13T08:52:59Z
2023-12-13T06:53:33Z,42.805,6.029,13.3056,4.60130,2470.904,2023-12-13T08:56:03Z
2023-12-13T06:56:36Z,42.805,6.029,13.3044,4.60166,2470.917,2023-12-13T08:59:06Z
2023-12-13T06:59:39Z,42.805,6.029,13.3054,4.60162,2470.927,2023-12-13T09:02:09Z
2023-12-13T07:02:42Z,42.805,6.029,13.3054,4.60167,2470.94,2023-12-13T09:05:12Z
2023-12-13T07:05:45Z,42.805,6.029,13.3044,4.60162,2470.94,2023-12-13T09:08:15Z
2023-12-13T07:08:48Z,42.805,6.029,13.3048,4.60155,2470.927,2023-12-13T09:11:18Z
2023-12-13T07:11:51Z,42.805,6.029,13.3045,4.60163,2470.94,2023-12-13T09:14:21Z
2023-12-13T07:14:55Z,42.805,6.029,13.3046,4.60142,2470.95,2023-12-13T09:17:24Z
2023-12-13T07:17:58Z,42.805,6.029,13.3048,4.60158,2470.94,2023-12-13T09:20:27Z
2023-12-13T07:21:01Z,42.805,6.029,13.3059,4.60170,2470.94,2023-12-13T09:23:30Z
2023-12-13T07:24:04Z,42.805,6.029,13.3054,4.60168,2470.927,2023-12-13T09:26:33Z
2023-12-13T07:27:07Z,42.805,6.029,13.3056,4.60182,2470.95,2023-12-13T09:29:36Z
2023-12-13T07:30:10Z,42.805,6.029,13.3043,4.60152,2470.927,2023-12-13T09:32:40Z
2023-12-13T07:33:13Z,42.805,6.029,13.3045,4.60148,2470.927,2023-12-13T09:35:43Z
2023-12-13T07:36:16Z,42.805,6.029,13.3056,4.60187,2470.95,2023-12-13T09:38:46Z
2023-12-13T07:39:19Z,42.805,6.029,13.3058,4.60170,2470.95,2023-12-13T09:41:49Z
2023-12-13T07:42:22Z,42.805,6.029,13.3052,4.60183,2470.94,2023-12-13T09:44:52Z
2023-12-13T07:45:25Z,42.805,6.029,13.3052,4.60166,2470.95,2023-12-13T09:47:55Z
2023-12-13T07:48:28Z,42.805,6.029,13.3049,4.60186,2470.927,2023-12-13T09:50:58Z
2023-12-13T07:51:32Z,42.805,6.029,13.3061,4.60184,2470.904,2023-12-13T09:54:01Z
2023-12-13T07:54:35Z,42.805,6.029,13.3045,4.60169,2470.95,2023-12-13T09:57:04Z
2023-12-13T07:57:38Z,42.805,6.029,13.3048,4.60162,2470.95,2023-12-13T10:00:07Z
2023-12-13T08:00:41Z,42.805,6.029,13.3062,4.60137,2470.904,2023-12-13T10:03:10Z
2023-12-13T08:03:44Z,42.805,6.029,13.3054,4.60149,2470.927,2023-12-13T10:06:13Z
2023-12-13T08:06:47Z,42.805,6.029,13.3046,4.60178,2470.927,2023-12-13T10:09:17Z
2023-12-13T08:09:50Z,42.805,6.029,13.3072,4.60187,2470.94,2023-12-13T10:12:20Z
2023-12-13T08:12:53Z,42.805,6.029,13.3049,4.60187,2470.95,2023-12-13T10:15:23Z
2023-12-13T08:15:56Z,42.805,6.029,13.3050,4.60153,2470.927,2023-12-13T10:18:26Z
2023-12-13T08:18:59Z,42.805,6.029,13.3058,4.60199,2470.904,2023-12-13T10:21:29Z
2023-12-13T08:22:02Z,42.805,6.029,13.3067,4.60152,2470.927,2023-12-13T10:24:32Z
2023-12-13T08:25:05Z,42.805,6.029,13.3056,4.60190,2470.904,2023-12-13T10:27:35Z
2023-12-13T08:28:09Z,42.805,6.029,13.3054,4.60194,2470.927,2023-12-13T10:30:38Z
2023-12-13T08:31:12Z,42.805,6.029,13.3046,4.60183,2470.88,2023-12-13T10:33:41Z
2023-12-13T08:34:15Z,42.805,6.029,13.3057,4.60178,2470.917,2023-12-13T10:36:44Z
2023-12-13T08:37:18Z,42.805,6.029,13.3050,4.60186,2470.964,2023-12-13T10:39:47Z
2023-12-13T08:40:21Z,42.805,6.029,13.3056,4.60193,2470.94,2023-12-13T10:42:51Z
2023-12-13T08:43:24Z,42.805,6.029,13.3073,4.60165,2470.95,2023-12-13T10:45:54Z
2023-12-13T08:46:27Z,42.805,6.029,13.3058,4.60183,2470.94,2023-12-13T10:48:57Z
2023-12-13T08:49:30Z,42.805,6.029,13.3065,4.60220,2470.95,2023-12-13T10:52:00Z
2023-12-13T08:52:33Z,42.805,6.029,13.3069,4.60196,2470.94,2023-12-13T10:55:03Z
2023-12-13T08:55:36Z,42.805,6.029,13.3054,4.60183,2470.927,2023-12-13T10:58:06Z
2023-12-13T08:58:39Z,42.805,6.029,13.3052,4.60170,2470.904,2023-12-13T11:01:09Z
2023-12-13T09:01:43Z,42.805,6.029,13.3067,4.60190,2470.94,2023-12-13T11:04:12Z
2023-12-13T09:04:46Z,42.805,6.029,13.3049,4.60193,2470.904,2023-12-13T11:07:15Z
2023-12-13T09:07:49Z,42.805,6.029,13.3044,4.60166,2470.904,2023-12-13T11:10:18Z
2023-12-13T09:10:52Z,42.805,6.029,13.3046,4.60185,2470.88,2023-12-13T11:13:21Z
2023-12-13T09:13:55Z,42.805,6.029,13.3057,4.60198,2470.904,2023-12-13T11:16:24Z
2023-12-13T09:16:58Z,42.805,6.029,13.3052,4.60182,2470.927,2023-12-13T11:19:28Z
2023-12-13T09:20:01Z,42.805,6.029,13.3058,4.60183,2470.917,2023-12-13T11:22:31Z
2023-12-13T09:23:04Z,42.805,6.029,13.3053,4.60185,2470.917,2023-12-13T11:25:34Z
2023-12-13T09:26:07Z,42.805,6.029,13.3046,4.60203,2470.94,2023-12-13T11:28:37Z
2023-12-13T09:29:10Z,42.805,6.029,13.3056,4.60156,2470.927,2023-12-13T11:31:40Z
2023-12-13T09:32:13Z,42.805,6.029,13.3059,4.60232,2470.917,2023-12-13T11:34:43Z
2023-12-13T09:35:16Z,42.805,6.029,13.3047,4.60173,2470.904,2023-12-13T11:37:46Z
2023-12-13T09:38:20Z,42.805,6.029,13.3050,4.60184,2470.88,2023-12-13T11:40:49Z
2023-12-13T09:41:23Z,42.805,6.029,13.3058,4.60183,2470.894,2023-12-13T11:43:52Z
2023-12-13T09:44:26Z,42.805,6.029,13.3065,4.60213,2470.88,2023-12-13T11:46:55Z
2023-12-13T09:47:29Z,42.805,6.029,13.3056,4.60184,2470.88,2023-12-13T11:49:58Z
2023-12-13T09:50:32Z,42.805,6.029,13.3072,4.60190,2470.857,2023-12-13T11:53:02Z
2023-12-13T09:53:35Z,42.805,6.029,13.3068,4.60190,2470.88,2023-12-13T11:56:05Z
2023-12-13T09:56:38Z,42.805,6.029,13.3070,4.60193,2470.88,2023-12-13T11:59:08Z
2023-12-13T09:59:41Z,42.805,6.029,13.3078,4.60214,2470.94,2023-12-13T12:02:11Z
2023-12-13T10:02:44Z,42.805,6.029,13.3061,4.60225,2470.871,2023-12-13T12:05:14Z
2023-12-13T10:05:47Z,42.805,6.029,13.3069,4.60194,2470.88,2023-12-13T12:08:17Z
2023-12-13T10:08:50Z,42.805,6.029,13.3074,4.60173,2470.871,2023-12-13T12:11:20Z
2023-12-13T10:11:54Z,42.805,6.029,13.3058,4.60200,2470.871,2023-12-13T12:14:23Z
2023-12-13T10:14:57Z,42.805,6.029,13.3056,4.60198,2470.894,2023-12-13T12:17:26Z
2023-12-13T10:18:00Z,42.805,6.029,13.3059,4.60208,2470.88,2023-12-13T12:20:29Z
2023-12-13T10:21:03Z,42.805,6.029,13.3065,4.60200,2470.857,2023-12-13T12:23:32Z
2023-12-13T10:24:06Z,42.805,6.029,13.3061,4.60150,2470.88,2023-12-13T12:26:35Z
2023-12-13T10:27:09Z,42.805,6.029,13.3053,4.60186,2470.833,2023-12-13T12:29:39Z
2023-12-13T10:30:12Z,42.805,6.029,13.3090,4.60215,2470.894,2023-12-13T12:32:42Z
2023-12-13T10:33:15Z,42.805,6.029,13.3061,4.60215,2470.847,2023-12-13T12:35:45Z
2023-12-13T10:36:18Z,42.805,6.029,13.3051,4.60196,2470.871,2023-12-13T12:38:48Z
2023-12-13T10:39:21Z,42.805,6.029,13.3061,4.60221,2470.833,2023-12-13T12:41:51Z
2023-12-13T10:42:24Z,42.805,6.029,13.3064,4.60240,2470.857,2023-12-13T12:44:54Z
2023-12-13T10:45:28Z,42.805,6.029,13.3058,4.60213,2470.857,2023-12-13T12:47:57Z
2023-12-13T10:48:31Z,42.805,6.029,13.3055,4.60204,2470.833,2023-12-13T12:51:00Z
2023-12-13T10:51:34Z,42.805,6.029,13.3066,4.60193,2470.843,2023-12-13T12:54:03Z
2023-12-13T10:54:37Z,42.805,6.029,13.3065,4.60200,2470.857,2023-12-13T12:57:06Z
2023-12-13T10:57:40Z,42.805,6.029,13.3059,4.60193,2470.871,2023-12-13T13:00:09Z
2023-12-13T11:00:43Z,42.805,6.029,13.3055,4.60170,2470.857,2023-12-13T13:03:13Z
2023-12-13T11:03:46Z,42.805,6.029,13.3061,4.60186,2470.871,2023-12-13T13:06:16Z
2023-12-13T11:06:49Z,42.805,6.029,13.3052,4.60197,2470.833,2023-12-13T13:09:19Z
2023-12-13T11:09:52Z,42.805,6.029,13.3069,4.60213,2470.847,2023-12-13T13:12:22Z
2023-12-13T11:12:55Z,42.805,6.029,13.3062,4.60204,2470.871,2023-12-13T13:15:25Z
2023-12-13T11:15:58Z,42.805,6.029,13.3049,4.60180,2470.857,2023-12-13T13:18:28Z
2023-12-13T11:19:01Z,42.805,6.029,13.3046,4.60179,2470.824,2023-12-13T13:21:31Z
2023-12-13T11:22:05Z,42.805,6.029,13.3066,4.60173,2470.833,2023-12-13T13:24:34Z
2023-12-13T11:25:08Z,42.805,6.029,13.3062,4.60183,2470.847,2023-12-13T13:27:37Z
2023-12-13T11:28:11Z,42.805,6.029,13.3050,4.60200,2470.871,2023-12-13T13:30:40Z
2023-12-13T11:31:12Z,42.805,6.029,13.3053,4.60180,2470.871,2023-12-13T13:33:42Z
2023-12-13T11:34:15Z,42.805,6.029,13.3063,4.60206,2470.833,2023-12-13T13:36:45Z
2023-12-13T11:37:18Z,42.805,6.029,13.3067,4.60213,2470.833,2023-12-13T13:39:48Z
2023-12-13T11:40:21Z,42.805,6.029,13.3053,4.60169,2470.833,2023-12-13T13:42:51Z
2023-12-13T11:43:24Z,42.805,6.029,13.3057,4.60198,2470.833,2023-12-13T13:45:54Z
2023-12-13T11:46:27Z,42.805,6.029,13.3067,4.60198,2470.847,2023-12-13T13:48:57Z
2023-12-13T11:49:30Z,42.805,6.029,13.3072,4.60199,2470.833,2023-12-13T13:52:00Z
2023-12-13T11:52:34Z,42.805,6.029,13.3048,4.60177,2470.871,2023-12-13T13:55:03Z
2023-12-13T11:55:37Z,42.805,6.029,13.3056,4.60173,2470.81,2023-12-13T13:58:06Z
2023-12-13T11:58:40Z,42.805,6.029,13.3065,4.60190,2470.8,2023-12-13T14:01:09Z
2023-12-13T12:01:43Z,42.805,6.029,13.3058,4.60182,2470.81,2023-12-13T14:04:12Z
2023-12-13T12:04:46Z,42.805,6.029,13.3053,4.60180,2470.81,2023-12-13T14:07:15Z
2023-12-13T12:07:49Z,42.805,6.029,13.3051,4.60173,2470.763,2023-12-13T14:10:19Z
2023-12-13T12:10:52Z,42.805,6.029,13.3047,4.60182,2470.787,2023-12-13T14:13:22Z
2023-12-13T12:13:55Z,42.805,6.029,13.3078,4.60162,2470.824,2023-12-13T14:16:25Z
2023-12-13T12:16:58Z,42.805,6.029,13.3066,4.60193,2470.787,2023-12-13T14:19:28Z
2023-12-13T12:20:01Z,42.805,6.029,13.3056,4.60198,2470.787,2023-12-13T14:22:31Z
2023-12-13T12:23:04Z,42.805,6.029,13.3051,4.60163,2470.847,2023-12-13T14:25:34Z
2023-12-13T12:26:07Z,42.805,6.029,13.3063,4.60170,2470.8,2023-12-13T14:28:37Z
2023-12-13T12:29:11Z,42.805,6.029,13.3056,4.60190,2470.763,2023-12-13T14:31:40Z
2023-12-13T12:32:14Z,42.805,6.029,13.3068,4.60170,2470.8,2023-12-13T14:34:43Z
2023-12-13T12:35:17Z,42.805,6.029,13.3055,4.60193,2470.787,2023-12-13T14:37:46Z
2023-12-13T12:38:20Z,42.805,6.029,13.3054,4.60176,2470.777,2023-12-13T14:40:49Z
2023-12-13T12:41:23Z,42.805,6.029,13.3056,4.60186,2470.763,2023-12-13T14:43:53Z
2023-12-13T12:44:26Z,42.805,6.029,13.3057,4.60183,2470.777,2023-12-13T14:46:56Z
2023-12-13T12:47:29Z,42.805,6.029,13.3064,4.60182,2470.8,2023-12-13T14:49:59Z
2023-12-13T12:50:32Z,42.805,6.029,13.3056,4.60203,2470.787,2023-12-13T14:53:02Z
2023-12-13T12:53:35Z,42.805,6.029,13.3051,4.60191,2470.8,2023-12-13T14:56:05Z
2023-12-13T12:56:38Z,42.805,6.029,13.3058,4.60170,2470.763,2023-12-13T14:59:08Z
2023-12-13T12:59:41Z,42.805,6.029,13.3051,4.60194,2470.787,2023-12-13T15:02:11Z
2023-12-13T13:02:45Z,42.805,6.029,13.3067,4.60208,2470.8,2023-12-13T15:05:14Z
2023-12-13T13:05:48Z,42.805,6.029,13.3048,4.60170,2470.787,2023-12-13T15:08:17Z
2023-12-13T13:08:51Z,42.805,6.029,13.3059,4.60188,2470.8,2023-12-13T15:11:20Z
2023-12-13T13:11:54Z,42.805,6.029,13.3047,4.60175,2470.754,2023-12-13T15:14:23Z
2023-12-13T13:14:57Z,42.805,6.029,13.3055,4.60174,2470.754,2023-12-13T15:17:27Z
2023-12-13T13:18:00Z,42.805,6.029,13.3046,4.60156,2470.787,2023-12-13T15:20:30Z
2023-12-13T13:21:03Z,42.805,6.029,13.3044,4.60170,2470.763,2023-12-13T15:23:33Z
2023-12-13T13:24:06Z,42.805,6.029,13.3048,4.60167,2470.787,2023-12-13T15:26:36Z
2023-12-13T13:27:09Z,42.805,6.029,13.3056,4.60190,2470.754,2023-12-13T15:29:39Z
2023-12-13T13:30:11Z,42.805,6.029,13.3043,4.60177,2470.754,2023-12-13T15:32:41Z
2023-12-13T13:33:14Z,42.805,6.029,13.3053,4.60195,2470.717,2023-12-13T15:35:44Z
2023-12-13T13:36:17Z,42.805,6.029,13.3041,4.60198,2470.754,2023-12-13T15:38:47Z
2023-12-13T13:39:20Z,42.805,6.029,13.3050,4.60182,2470.763,2023-12-13T15:41:50Z
2023-12-13T13:42:23Z,42.805,6.029,13.3049,4.60177,2470.763,2023-12-13T15:44:53Z
2023-12-13T13:45:27Z,42.805,6.029,13.3043,4.60172,2470.763,2023-12-13T15:47:56Z
2023-12-13T13:48:30Z,42.805,6.029,13.3048,4.60151,2470.763,2023-12-13T15:50:59Z
2023-12-13T13:51:33Z,42.805,6.029,13.3048,4.60168,2470.74,2023-12-13T15:54:02Z
2023-12-13T13:54:36Z,42.805,6.029,13.3068,4.60172,2470.754,2023-12-13T15:57:05Z
2023-12-13T13:57:39Z,42.805,6.029,13.3046,4.60176,2470.74,2023-12-13T16:00:08Z
2023-12-13T14:00:42Z,42.805,6.029,13.3058,4.60192,2470.693,2023-12-13T16:03:12Z
2023-12-13T14:03:45Z,42.805,6.029,13.3044,4.60174,2470.717,2023-12-13T16:06:15Z
2023-12-13T14:06:48Z,42.805,6.029,13.3049,4.60200,2470.74,2023-12-13T16:09:18Z
2023-12-13T14:09:51Z,42.805,6.029,13.3061,4.60176,2470.717,2023-12-13T16:12:21Z
2023-12-13T14:12:54Z,42.805,6.029,13.3047,4.60185,2470.754,2023-12-13T16:15:24Z
2023-12-13T14:15:57Z,42.805,6.029,13.3039,4.60140,2470.754,2023-12-13T16:18:27Z
2023-12-13T14:19:00Z,42.805,6.029,13.3040,4.60149,2470.73,2023-12-13T16:21:30Z
2023-12-13T14:22:04Z,42.805,6.029,13.3047,4.60165,2470.74,2023-12-13T16:24:33Z
2023-12-13T14:25:07Z,42.805,6.029,13.3055,4.60183,2470.73,2023-12-13T16:27:36Z
2023-12-13T14:28:10Z,42.805,6.029,13.3057,4.60171,2470.8,2023-12-13T16:30:39Z
2023-12-13T14:31:13Z,42.805,6.029,13.3057,4.60163,2470.74,2023-12-13T16:33:42Z
2023-12-13T14:34:16Z,42.805,6.029,13.3050,4.60166,2470.73,2023-12-13T16:36:46Z
2023-12-13T14:37:19Z,42.805,6.029,13.3057,4.60169,2470.777,2023-12-13T16:39:49Z
2023-12-13T14:40:22Z,42.805,6.029,13.3050,4.60176,2470.74,2023-12-13T16:42:52Z
2023-12-13T14:43:25Z,42.805,6.029,13.3046,4.60168,2470.74,2023-12-13T16:45:55Z
2023-12-13T14:46:28Z,42.805,6.029,13.3042,4.60164,2470.73,2023-12-13T16:48:58Z
2023-12-13T14:49:31Z,42.805,6.029,13.3051,4.60169,2470.693,2023-12-13T16:52:01Z
2023-12-13T14:52:34Z,42.805,6.029,13.3047,4.60173,2470.754,2023-12-13T16:55:04Z
2023-12-13T14:55:38Z,42.805,6.029,13.3048,4.60175,2470.777,2023-12-13T16:58:07Z
2023-12-13T14:58:41Z,42.805,6.029,13.3046,4.60174,2470.693,2023-12-13T17:01:10Z
2023-12-13T15:01:44Z,42.805,6.029,13.3056,4.60175,2470.763,2023-12-13T17:04:13Z